Satellite-Ground Cal/Val Region Overpasses Predictions

Prediction of Satellite NPP Overpassing Cal/Val Region: PacNW

Region Location: (Latitude: 10.00, Longitude: 139.50) to (Latitude: 22.70, Longitude: 165.60).

Table of predicted overpasses for the next 14.0 days since TLE Epoch: 12/26/2021
Interval Starting Time Starting Location Ending Time Ending Location
1 12/26/2021 14:30:46 ( 12.24, 165.59) 12/26/2021 14:31:24 ( 10.01, 165.08)
2 12/26/2021 16:09:18 ( 22.68, 142.72) 12/26/2021 16:12:53 ( 10.06, 139.72)
3 12/27/2021 03:18:23 ( 10.03, 150.25) 12/27/2021 03:21:58 ( 22.66, 147.25)
4 12/27/2021 15:50:15 ( 22.70, 147.48) 12/27/2021 15:53:51 ( 10.02, 144.47)
5 12/28/2021 02:59:20 ( 10.02, 155.01) 12/28/2021 03:02:56 ( 22.70, 152.00)
6 12/28/2021 15:31:12 ( 22.66, 152.24) 12/28/2021 15:34:47 ( 10.03, 149.24)
7 12/29/2021 02:40:17 ( 10.06, 159.77) 12/29/2021 02:43:52 ( 22.68, 156.77)
8 12/29/2021 15:12:09 ( 22.67, 157.00) 12/29/2021 15:15:44 ( 10.05, 154.00)
9 12/30/2021 02:21:14 ( 10.04, 164.53) 12/30/2021 02:24:49 ( 22.66, 161.53)
10 12/30/2021 14:53:05 ( 22.69, 161.77) 12/30/2021 14:56:41 ( 10.01, 158.75)
11 12/31/2021 03:43:40 ( 10.03, 143.92) 12/31/2021 03:47:15 ( 22.66, 140.92)
12 12/31/2021 14:35:07 ( 18.89, 165.60) 12/31/2021 14:37:38 ( 10.03, 163.52)
13 12/31/2021 16:15:32 ( 22.70, 141.16) 12/31/2021 16:17:28 ( 15.89, 139.50)
14 01/01/2022 03:24:37 ( 10.02, 148.68) 01/01/2022 03:28:12 ( 22.64, 145.69)
15 01/01/2022 15:56:29 ( 22.65, 145.91) 01/01/2022 16:00:04 ( 10.03, 142.91)
16 01/02/2022 03:05:33 ( 10.00, 153.45) 01/02/2022 03:09:09 ( 22.69, 150.44)
17 01/02/2022 15:37:26 ( 22.67, 150.67) 01/02/2022 15:41:01 ( 10.05, 147.67)
18 01/03/2022 02:46:31 ( 10.05, 158.20) 01/03/2022 02:50:06 ( 22.67, 155.20)
19 01/03/2022 15:18:23 ( 22.68, 155.44) 01/03/2022 15:21:59 ( 10.00, 152.43)
20 01/04/2022 02:27:27 ( 10.04, 162.97) 01/04/2022 02:31:02 ( 22.66, 159.97)
21 01/04/2022 14:59:19 ( 22.69, 160.20) 01/04/2022 15:02:55 ( 10.01, 157.19)
22 01/05/2022 02:10:59 ( 19.13, 165.60) 01/05/2022 02:11:59 ( 22.65, 164.73)
23 01/05/2022 03:49:54 ( 10.03, 142.36) 01/05/2022 03:53:19 ( 22.07, 139.50)
24 01/05/2022 14:40:17 ( 22.65, 164.95) 01/05/2022 14:43:52 ( 10.03, 161.96)
25 01/05/2022 16:21:46 ( 22.69, 139.59) 01/05/2022 16:21:52 ( 22.34, 139.50)
26 01/06/2022 03:30:50 ( 10.02, 147.12) 01/06/2022 03:34:25 ( 22.65, 144.12)
27 01/06/2022 16:02:43 ( 22.65, 144.34) 01/06/2022 16:06:18 ( 10.03, 141.34)
28 01/07/2022 03:11:47 ( 10.01, 151.88) 01/07/2022 03:15:23 ( 22.69, 148.87)
29 01/07/2022 15:43:40 ( 22.66, 149.11) 01/07/2022 15:47:15 ( 10.04, 146.11)
30 01/08/2022 02:52:43 ( 10.00, 156.65) 01/08/2022 02:56:19 ( 22.68, 153.64)
31 01/08/2022 15:24:36 ( 22.67, 153.87) 01/08/2022 15:28:11 ( 10.05, 150.87)
